Snowfall_Accumulation
nan nan nan nan nan nan nan nan nan nan nan nan nan nan nan nan nan 0.0 0.0 0.0 2.2 9.6 2.7 1.2 1.7 4.3 2.7 1.6 3.6 1.2 1.2 1.3 0.9 4.6 4.9 4.1 4.6 4.0 2.0 2.8 2.7 1.9 4.7 5.8 5.0 12.3 17.5 1.8 0.5 3.0 5.8 2.8 1.8 1.2
nan nan nan nan nan nan nan nan nan nan nan nan nan nan nan nan nan nan 0.4 0.0 0.0 6.6 4.2 0.4 1.4 0.6 0.8 1.1 2.0 0.7 0.8 0.6 1.8 5.1 5.9 3.2 4.6 2.3 3.7 7.0 1.7 4.3 6.9 5.0 6.6 8.3 8.1 5.5 7.3 5.7 4.5 2.5 2.2 1.4
nan nan nan nan nan nan nan nan nan nan nan nan nan nan nan nan nan nan 0.1 0.5 1.2 4.7 5.1 3.6 1.4 0.9 0.4 0.8 1.6 5.4 1.5 3.0 4.4 4.5 7.8 5.9 6.4 2.7 4.7 5.0 4.4 3.2 3.5 5.6 3.3 4.0 4.2 4.6 1.0 1.6 1.7 2.1 1.3 0.5
nan nan nan nan nan nan nan nan nan nan nan nan nan nan nan nan nan nan 0.0 0.0 0.3 0.5 4.2 3.6 0.7 1.8 1.1 0.4 0.7 0.8 0.8 0.6 1.0 2.3 8.8 6.0 7.4 1.2 4.1 6.0 2.3 4.7 3.6 6.4 6.6 4.1 4.2 3.9 2.3 2.3 1.1 0.4 0.3 0.2
nan nan nan nan nan nan nan nan nan nan nan nan nan nan nan nan nan nan 0.0 1.1 1.2 4.5 7.5 3.5 1.3 1.0 0.2 1.2 1.9 1.4 2.3 2.8 4.5 9.2 10.7 15.1 5.8 7.3 4.5 5.3 10.9 11.2 9.9 9.2 8.9 7.2 8.3 5.7 4.8 3.0 2.0 1.9 1.7 1.7
nan nan nan nan nan nan nan nan nan nan nan nan nan nan nan nan nan 0.1 2.5 0.1 0.0 1.0 6.5 5.2 1.8 1.1 0.2 0.5 0.4 0.9 1.9 2.2 5.3 8.6 10.2 12.4 8.5 8.0 15.3 11.4 9.1 7.6 7.3 9.2 12.1 9.9 10.3 8.7 7.1 5.9 5.6 5.5 5.3 2.7
nan nan nan nan nan nan nan nan nan nan nan nan nan nan nan nan 0.0 0.3 2.0 0.9 nan 1.7 5.2 7.1 4.4 0.3 0.0 1.9 0.6 1.1 0.4 6.5 7.3 11.4 11.3 9.2 7.4 3.0 12.1 13.0 9.6 8.8 9.7 10.5 8.5 5.6 7.3 5.1 13.3 9.0 7.4 7.9 6.2 5.6
nan nan nan nan nan nan nan nan nan nan nan nan nan nan nan nan nan 2.2 5.0 nan nan 1.0 0.5 11.8 3.4 0.2 0.0 1.2 6.8 1.0 3.9 5.1 3.9 9.8 6.6 7.3 3.9 4.6 16.5 14.6 10.5 7.9 5.3 4.6 6.8 6.9 10.7 7.8 5.1 5.9 4.2 4.3 4.4 5.6
nan nan nan nan nan nan nan nan nan nan nan nan nan nan 0.0 0.0 0.2 0.2 nan nan 1.0 1.1 9.3 5.8 6.7 6.7 0.0 0.8 3.6 7.5 2.5 5.0 3.6 5.1 7.8 1.6 6.7 14.7 18.8 11.6 7.5 8.8 10.0 9.5 5.2 5.0 3.9 4.8 4.5 3.2 3.0 2.6 2.7 4.2
nan nan nan nan nan nan nan nan nan nan nan nan 0.0 0.0 0.5 0.0 nan nan 0.1 0.8 0.8 1.8 2.2 7.1 0.6 5.1 0.7 0.3 5.5 3.6 7.6 8.5 13.4 8.8 1.6 6.6 21.3 14.8 12.8 10.8 7.9 7.1 6.7 4.6 2.7 2.1 1.2 1.2 2.1 2.3 3.0 2.6 3.3 3.7
nan nan nan nan nan nan nan nan nan nan nan 0.0 0.2 0.4 0.0 nan 0.0 0.0 2.6 5.4 3.9 9.1 2.2 2.3 0.8 4.0 0.6 9.1 9.3 8.8 15.1 10.8 15.1 8.1 4.4 9.9 12.9 13.4 8.5 6.5 4.5 3.8 2.6 2.6 1.5 3.0 1.7 2.0 2.3 1.3 0.8 0.7 0.8 0.9
nan nan nan nan nan nan nan nan nan 0.0 0.0 0.0 0.0 0.0 0.0 0.6 3.8 7.0 7.3 3.8 7.5 10.3 3.8 3.1 1.5 1.4 2.3 3.2 11.0 13.0 17.0 10.9 17.4 2.7 8.8 11.3 15.7 7.2 3.9 4.7 4.1 1.0 0.7 0.4 0.3 0.5 0.2 0.3 0.4 0.4 0.5 0.4 0.2 0.2
nan nan nan nan nan nan nan nan nan nan nan 0.0 0.4 7.5 6.6 10.0 35.9 15.4 11.7 13.3 12.9 2.7 2.8 3.6 4.8 1.8 2.8 1.9 11.7 8.8 18.1 18.5 2.0 13.2 8.9 11.3 7.0 3.0 2.5 1.2 0.4 0.3 0.2 0.1 0.2 0.1 0.1 0.2 0.1 0.4 0.3 0.2 0.1 0.1
nan nan nan nan nan nan nan nan nan 0.0 0.0 4.9 18.5 48.1 15.4 13.9 4.6 8.3 6.8 5.9 2.5 3.3 3.6 4.3 6.1 5.7 4.8 10.7 7.7 17.1 7.3 5.8 17.1 13.2 13.5 7.2 4.8 2.3 0.8 0.4 0.4 0.5 0.4 0.3 0.3 0.2 0.2 0.3 0.3 0.2 0.1 0.2 0.3 0.2
nan nan nan nan nan nan nan nan nan 0.0 0.3 21.2 17.0 31.5 14.4 4.0 2.8 4.2 1.6 1.7 1.5 1.6 3.3 4.3 6.1 3.2 8.2 12.5 4.1 6.4 12.7 13.0 8.1 11.4 7.7 4.6 2.4 1.3 0.7 0.5 0.6 0.5 0.9 1.5 1.2 1.7 1.5 1.2 0.8 0.5 0.1 0.2 0.1 0.1
nan nan 0.1 nan nan nan nan nan 0.0 0.0 10.6 19.5 20.8 13.8 1.5 4.5 4.8 3.4 3.6 2.8 0.9 1.7 2.2 3.8 9.9 15.1 11.8 9.4 13.5 12.3 13.2 10.0 9.5 7.6 5.4 3.5 2.2 1.2 0.9 0.5 0.5 0.6 0.7 0.7 0.4 0.4 0.4 0.6 0.5 0.5 0.2 0.2 0.2 0.3
nan 0.0 nan nan nan nan nan 0.0 0.2 23.2 26.5 29.5 21.5 0.9 2.2 3.0 3.6 1.4 0.7 0.6 0.5 2.8 7.8 8.2 17.9 12.6 7.7 14.9 12.4 7.9 15.5 8.6 6.1 3.1 1.8 2.0 2.9 1.8 1.5 1.4 1.1 1.0 0.7 0.6 0.5 0.3 0.5 0.2 0.2 0.4 0.5 0.1 0.2 0.2
0.3 0.0 nan nan nan nan 0.2 1.6 19.6 30.9 39.0 15.5 7.2 3.1 0.7 0.4 1.3 0.7 0.4 0.3 1.4 2.0 3.0 8.9 8.0 18.6 17.4 13.1 9.3 9.5 5.9 2.6 2.0 1.2 1.6 1.5 0.9 1.6 0.9 1.1 0.8 0.8 0.8 0.7 1.3 1.0 1.4 1.4 1.0 0.8 0.4 0.2 0.5 0.6
0.0 0.0 nan nan 0.0 1.1 14.3 22.9 9.8 31.6 22.0 4.6 1.8 1.1 0.7 0.5 0.4 0.4 0.3 0.3 0.5 0.9 6.1 11.7 16.8 18.2 7.1 5.0 4.5 2.6 2.1 2.5 2.2 0.7 0.8 0.7 1.2 1.8 1.7 2.3 1.2 1.3 1.5 1.3 0.9 2.1 1.7 0.6 1.1 0.8 0.7 0.9 1.3 0.7
nan nan nan nan nan 11.7 34.7 33.5 10.8 11.5 14.9 6.4 2.7 4.2 2.2 1.2 0.4 0.3 0.3 0.5 1.9 9.3 18.2 22.0 8.5 7.1 6.1 3.9 3.9 3.8 3.0 2.3 1.8 0.9 0.3 0.2 0.5 1.3 1.5 1.6 1.3 0.8 0.9 1.0 1.2 nan 2.4 1.7 0.5 0.5 1.3 2.5 5.2 1.2
nan nan nan 0.2 6.4 5.7 15.3 25.9 18.6 13.2 10.1 6.2 6.8 3.7 5.9 4.4 6.3 8.6 8.0 1.4 14.4 21.2 16.2 4.6 5.4 3.7 3.7 3.4 1.5 1.8 1.6 1.6 2.5 3.7 3.1 2.1 2.1 0.5 0.6 0.9 1.1 1.5 2.2 1.7 2.4 1.4 1.2 1.4 0.8 1.0 6.1 1.8 1.3 1.7
0.4 nan 6.1 4.0 24.1 35.3 27.4 12.0 12.9 9.6 12.9 10.5 8.5 6.5 15.1 17.8 15.6 14.0 5.4 19.0 19.4 10.9 6.9 6.6 4.2 2.9 1.7 1.6 1.4 1.0 1.1 0.8 0.5 0.7 nan 1.3 1.6 0.8 1.0 1.0 2.3 4.0 3.5 4.1 3.1 2.7 1.4 1.0 2.5 4.1 3.2 1.9 2.1 0.9
nan 1.3 14.9 17.1 31.8 33.0 35.2 8.9 17.9 14.8 17.4 19.5 14.7 15.3 18.6 19.0 12.6 5.0 17.3 9.8 8.7 7.0 5.8 5.2 3.6 2.0 2.0 0.4 0.5 0.6 0.9 1.3 1.0 0.9 0.7 0.8 0.8 1.0 1.4 0.7 1.1 5.1 4.8 1.7 1.4 2.4 3.2 nan 1.0 3.6 3.0 1.0 1.1 1.3
nan 31.7 39.4 35.6 31.5 34.1 18.1 21.8 10.4 10.4 12.1 13.2 18.3 17.4 16.7 13.7 9.2 18.4 15.3 9.0 8.8 4.3 3.5 2.3 1.6 0.9 0.6 0.8 0.8 0.9 1.2 1.6 1.4 0.8 1.3 2.4 1.8 0.8 1.6 1.9 0.5 0.7 1.9 1.7 2.6 2.8 2.1 2.2 nan 1.8 2.2 3.1 2.7 3.3
43.1 54.3 30.3 46.7 25.6 20.6 15.2 11.3 14.5 9.3 13.9 11.1 12.8 15.2 15.3 11.7 17.4 18.6 12.3 8.7 5.4 5.6 3.6 2.1 2.0 2.9 5.4 3.5 0.8 1.1 0.7 2.9 4.2 2.9 0.6 1.2 1.5 1.0 2.1 1.0 0.5 0.7 0.9 5.1 3.3 3.6 3.1 3.9 3.4 4.3 4.7 6.3 6.6 10.2
56.9 27.2 34.7 16.2 17.9 8.9 8.1 11.4 10.2 12.1 9.5 14.1 14.8 10.8 12.5 12.3 17.5 20.4 10.2 9.7 5.6 7.4 8.9 7.1 6.5 3.5 2.4 4.0 4.6 3.6 2.6 2.8 4.2 3.0 0.9 1.4 3.4 9.2 8.7 5.3 4.4 1.6 0.8 3.0 9.9 10.3 5.6 5.5 7.4 7.6 7.7 6.2 nan 8.5
40.8 24.4 10.1 1.9 2.4 2.0 4.8 5.4 5.2 8.0 13.5 13.9 11.1 9.9 12.2 21.6 16.4 6.8 5.0 5.6 8.7 6.1 7.2 7.0 7.1 6.5 6.1 4.2 2.7 3.6 4.9 6.1 9.4 7.7 3.8 3.0 3.5 4.7 10.2 15.7 13.3 2.8 4.7 8.1 7.7 9.8 14.7 10.0 9.9 9.1 10.3 7.5 8.2 10.4
8.5 5.1 8.4 10.0 5.9 5.0 5.4 6.5 8.7 11.1 8.9 4.4 4.8 11.7 11.7 10.0 9.0 5.9 7.1 6.2 8.8 9.4 10.1 7.7 8.0 7.7 9.1 6.2 5.6 6.4 5.4 5.8 6.1 5.8 5.1 4.1 3.8 4.8 5.8 6.5 8.2 nan 14.8 12.5 20.4 18.0 12.8 13.1 14.0 12.6 11.0 10.9 9.5 7.4
9.2 6.1 4.4 11.3 8.5 10.5 12.2 10.7 9.2 5.4 2.3 4.1 8.3 7.5 7.1 3.9 6.3 5.8 5.5 6.2 8.6 9.5 9.6 8.2 7.2 7.6 7.3 7.4 8.4 8.6 9.5 10.7 11.4 8.8 6.1 5.9 5.6 6.3 7.5 9.7 12.8 11.3 11.3 11.2 nan nan 15.3 25.5 25.7 22.9 14.1 12.2 10.2 11.2
9.6 9.1 8.3 9.9 9.7 9.3 9.3 6.4 9.3 8.3 3.6 4.4 4.6 5.7 5.6 7.5 8.1 4.9 6.9 8.4 9.8 11.3 11.9 13.2 12.8 14.4 13.4 11.3 11.3 8.6 7.5 9.1 13.8 20.8 22.4 14.4 12.0 8.9 12.2 15.1 13.5 11.1 10.9 11.2 10.9 8.9 nan 9.0 nan 9.6 12.2 11.6 11.5 12.6
7.2 10.4 11.2 10.5 11.5 12.7 10.5 7.5 10.1 5.5 8.5 11.0 10.5 9.7 9.5 11.2 8.5 6.3 6.8 7.5 9.1 11.9 12.6 15.2 13.6 14.6 13.6 11.7 13.7 14.2 9.2 7.5 10.1 12.6 16.9 18.7 15.0 14.7 15.4 16.8 14.7 13.8 12.9 12.6 12.1 11.4 12.5 12.5 12.4 13.6 11.9 13.4 12.2 13.2
9.0 12.3 12.4 11.0 14.6 14.8 13.1 14.7 15.3 14.2 14.5 14.6 14.5 14.7 13.4 13.2 12.8 9.3 4.8 11.0 10.3 9.4 nan 11.5 11.6 8.8 9.2 10.8 10.8 11.2 nan 12.4 12.7 13.1 15.9 17.0 18.1 17.0 21.4 16.0 16.0 15.4 14.1 13.7 13.6 14.1 14.6 15.9 15.9 15.5 14.4 15.3 15.3 13.9
18.1 15.8 17.1 14.0 18.8 16.7 14.7 15.3 10.2 18.9 15.1 14.8 12.7 11.6 13.7 9.3 8.5 7.2 5.8 9.9 8.9 10.8 11.1 11.1 10.0 11.1 10.3 10.6 10.1 9.5 nan 12.6 16.3 nan nan nan nan nan 17.2 12.6 13.0 13.1 12.9 12.9 13.5 14.2 15.3 16.1 16.4 15.1 15.3 16.4 16.3 15.9
Water_Equivalent
nan nan nan nan nan nan nan nan nan nan nan nan nan nan nan nan nan 0.00 0.00 0.00 0.49 1.52 0.42 0.21 0.29 0.53 0.38 0.20 0.36 0.14 0.12 0.14 0.11 0.46 0.49 0.38 0.38 0.31 0.14 0.17 0.15 0.13 0.39 0.48 0.41 1.00 1.60 0.15 0.03 0.17 0.37 0.19 0.12 0.09
nan nan nan nan nan nan nan nan nan nan nan nan nan nan nan nan nan nan 0.10 0.00 0.00 1.17 0.54 0.06 0.20 0.10 0.12 0.14 0.26 0.10 0.11 0.09 0.21 0.55 0.60 0.34 0.43 0.20 0.28 0.52 0.13 0.29 0.51 0.38 0.55 0.66 0.68 0.44 0.58 0.44 0.38 0.19 0.15 0.10
nan nan nan nan nan nan nan nan nan nan nan nan nan nan nan nan nan nan 0.03 0.13 0.31 0.74 0.59 0.46 0.18 0.14 0.07 0.10 0.24 0.65 0.17 0.35 0.56 0.71 0.84 0.63 0.56 0.28 0.35 0.36 0.34 0.23 0.30 0.50 0.27 0.33 0.30 0.34 0.09 0.15 0.16 0.20 0.12 0.04
nan nan nan nan nan nan nan nan nan nan nan nan nan nan nan nan nan nan 0.00 0.00 0.07 0.08 0.42 0.30 0.11 0.19 0.16 0.06 0.11 0.11 0.12 0.08 0.14 0.35 1.17 0.79 0.89 0.15 0.42 0.52 0.17 0.35 0.30 0.52 0.62 0.48 0.46 0.47 0.27 0.26 0.14 0.04 0.04 0.03
nan nan nan nan nan nan nan nan nan nan nan nan nan nan nan nan nan nan 0.01 0.34 0.32 0.59 0.79 0.32 0.15 0.12 0.03 0.15 0.22 0.17 0.25 0.32 0.52 1.17 1.41 1.74 0.58 0.83 0.51 0.61 1.05 1.05 0.86 0.84 0.85 0.70 0.75 0.63 0.57 0.34 0.23 0.21 0.19 0.17
nan nan nan nan nan nan nan nan nan nan nan nan nan nan nan nan nan 0.02 0.32 0.03 0.00 0.16 0.86 0.58 0.20 0.12 0.03 0.07 0.04 0.10 0.20 0.25 0.73 1.26 1.23 1.61 0.87 0.81 1.95 1.13 0.87 0.69 0.67 0.94 1.19 1.15 1.12 1.01 0.80 0.72 0.62 0.62 0.54 0.30
nan nan nan nan nan nan nan nan nan nan nan nan nan nan nan nan 0.00 0.05 0.23 0.15 nan 0.31 0.64 0.98 0.40 0.04 0.00 0.21 0.09 0.17 0.07 0.95 1.02 1.58 1.41 1.11 0.78 0.35 1.54 1.30 0.96 0.85 0.92 1.09 1.00 0.66 0.75 0.56 1.39 1.04 0.86 0.98 0.75 0.67
nan nan nan nan nan nan nan nan nan nan nan nan nan nan nan nan nan 0.33 0.83 nan nan 0.11 0.09 2.67 0.42 0.02 0.00 0.17 0.72 0.22 0.63 0.90 0.57 1.34 0.92 0.88 0.53 0.60 1.91 1.40 1.01 0.81 0.54 0.46 0.72 0.71 1.10 0.88 0.59 0.69 0.47 0.48 0.45 0.55
nan nan nan nan nan nan nan nan nan nan nan nan nan nan 0.00 0.00 0.03 0.03 nan nan 0.21 0.17 1.56 1.21 0.93 1.29 0.00 0.10 0.39 0.89 0.37 0.69 0.47 0.58 0.81 0.21 0.67 1.59 1.65 1.02 0.69 0.79 0.84 0.91 0.64 0.57 0.43 0.48 0.42 0.30 0.28 0.25 0.24 0.38
nan nan nan nan nan nan nan nan nan nan nan nan 0.00 0.00 0.19 0.01 nan nan 0.02 0.17 0.20 0.28 0.46 1.01 0.08 0.61 0.05 0.03 0.61 0.40 1.09 1.17 2.72 0.84 0.21 0.86 1.84 1.54 1.34 1.03 0.72 0.68 0.69 0.47 0.28 0.19 0.11 0.10 0.17 0.19 0.24 0.21 0.26 0.31
nan nan nan nan nan nan nan nan nan nan nan 0.00 0.09 0.16 0.00 nan 0.00 0.02 0.75 1.21 0.72 1.58 0.35 0.34 0.12 0.40 0.11 1.14 1.12 1.08 2.22 1.56 2.51 0.74 0.60 1.24 1.18 1.24 0.83 0.63 0.44 0.36 0.24 0.21 0.12 0.22 0.12 0.14 0.16 0.09 0.06 0.06 0.06 0.07
nan nan nan nan nan nan nan nan nan 0.00 0.00 0.00 0.00 0.00 0.00 0.24 1.22 1.69 1.65 0.96 1.29 1.53 0.56 0.49 0.24 0.20 0.29 0.31 1.29 2.08 2.27 1.92 2.11 0.28 1.42 1.32 1.38 0.64 0.35 0.44 0.42 0.07 0.05 0.03 0.02 0.03 0.02 0.02 0.02 0.03 0.03 0.02 0.02 0.01
nan nan nan nan nan nan nan nan nan nan nan 0.00 0.14 2.50 1.76 2.48 6.35 2.60 1.69 2.47 2.34 0.55 0.63 0.64 0.90 0.28 0.46 0.27 1.82 1.45 2.92 2.36 0.24 2.13 0.80 0.89 0.59 0.27 0.20 0.09 0.03 0.02 0.02 0.01 0.01 0.01 0.00 0.01 0.01 0.02 0.02 0.01 0.01 0.01
nan nan nan nan nan nan nan nan nan 0.00 0.00 1.25 5.06 9.31 2.86 2.49 0.70 1.12 0.79 0.80 0.39 0.66 0.63 0.62 1.12 0.80 0.73 1.75 1.08 2.92 0.81 0.85 2.35 1.67 1.24 0.61 0.37 0.16 0.05 0.03 0.03 0.04 0.03 0.03 0.02 0.01 0.02 0.02 0.02 0.01 0.01 0.01 0.02 0.01
nan nan nan nan nan nan nan nan nan 0.00 0.08 5.38 4.04 5.44 2.41 0.48 0.56 0.77 0.49 0.46 0.32 0.25 0.46 0.76 1.00 0.53 1.69 2.19 0.59 1.15 1.82 1.77 0.80 1.04 0.75 0.39 0.16 0.08 0.06 0.04 0.05 0.05 0.11 0.27 0.25 0.35 0.31 0.21 0.12 0.09 0.02 0.01 0.01 0.01
nan nan 0.05 nan nan nan nan nan 0.00 0.00 2.84 5.30 4.88 2.58 0.19 0.95 1.20 0.91 1.17 0.82 0.25 0.28 0.38 0.80 1.87 2.44 1.91 1.50 2.04 1.61 1.88 1.08 0.97 0.80 0.60 0.43 0.25 0.16 0.10 0.04 0.04 0.04 0.05 0.05 0.03 0.03 0.04 0.05 0.07 0.06 0.04 0.04 0.05 0.06
nan 0.00 nan nan nan nan nan 0.01 0.08 7.97 7.41 7.34 4.30 0.12 0.37 0.63 0.66 0.27 0.19 0.17 0.08 0.54 1.55 1.54 2.55 1.69 1.35 2.16 1.66 1.24 2.09 0.85 0.60 0.33 0.24 0.16 0.28 0.19 0.26 0.22 0.17 0.10 0.07 0.06 0.04 0.03 0.04 0.02 0.03 0.05 0.05 0.02 0.03 0.05
0.07 0.00 nan nan nan nan 0.05 0.64 5.63 7.93 7.88 3.32 1.19 0.54 0.10 0.07 0.27 0.19 0.10 0.11 0.30 0.45 0.61 1.79 1.34 2.70 2.25 1.68 1.19 1.05 0.66 0.28 0.19 0.13 0.18 0.13 0.09 0.25 0.14 0.10 0.09 0.09 0.07 0.09 0.17 0.13 0.17 0.18 0.12 0.12 0.05 0.03 0.07 0.08
0.00 0.00 nan nan 0.00 0.37 5.08 6.86 3.54 5.76 4.00 0.87 0.33 0.23 0.14 0.09 0.08 0.06 0.09 0.09 0.14 0.20 1.31 2.15 2.71 2.52 0.68 0.51 0.41 0.26 0.17 0.20 0.13 0.04 0.08 0.05 0.17 0.27 0.26 0.36 0.18 0.18 0.21 0.18 0.13 0.26 0.20 0.08 0.10 0.09 0.09 0.11 0.15 0.09
nan nan nan nan nan 3.24 7.35 7.14 3.23 2.22 2.28 0.99 0.55 0.76 0.42 0.22 0.10 0.08 0.09 0.16 0.51 2.23 3.29 3.51 0.85 0.42 0.36 0.25 0.28 0.25 0.20 0.13 0.09 0.05 0.02 0.05 0.08 0.21 0.23 0.24 0.21 0.10 0.16 0.16 0.20 nan 0.28 0.21 0.10 0.09 0.15 0.25 0.41 0.14
nan nan nan 0.04 2.39 1.99 4.32 4.70 2.99 2.27 1.63 0.91 1.16 0.63 0.85 1.00 1.20 1.70 1.66 0.43 2.90 3.71 2.12 0.32 0.34 0.25 0.27 0.24 0.10 0.11 0.09 0.09 0.13 0.19 0.19 0.15 0.12 0.10 0.13 0.20 0.25 0.30 0.33 0.26 0.34 0.22 0.23 0.22 0.14 0.15 1.14 0.25 0.20 0.20
0.14 nan 1.98 1.46 6.76 8.30 5.23 2.59 2.11 1.46 1.71 1.44 1.36 1.10 2.46 2.96 2.62 2.36 1.25 3.29 2.77 1.19 0.47 0.41 0.29 0.22 0.14 0.09 0.08 0.06 0.06 0.04 0.03 0.03 nan 0.07 0.19 0.12 0.13 0.16 0.30 0.65 0.60 0.72 0.47 0.33 0.19 0.16 0.28 0.39 0.33 0.25 0.24 0.15
nan 0.45 4.29 5.44 5.95 5.95 6.09 1.83 2.55 2.11 2.26 2.76 2.18 2.06 2.66 2.79 1.84 0.94 2.60 1.34 0.92 0.53 0.44 0.40 0.25 0.13 0.15 0.03 0.03 0.03 0.05 0.07 0.05 0.04 0.04 0.04 0.04 0.11 0.18 0.09 0.15 0.73 0.78 0.29 0.23 0.30 0.43 nan 0.18 0.37 0.32 0.17 0.17 0.20
nan 6.87 7.26 6.17 5.34 5.37 2.64 3.10 1.38 1.30 1.46 1.59 2.46 2.16 2.11 1.77 1.27 2.59 1.86 0.82 0.66 0.46 0.34 0.18 0.21 0.14 0.10 0.11 0.07 0.07 0.10 0.12 0.11 0.06 0.09 0.21 0.21 0.08 0.17 0.24 0.05 0.09 0.19 0.21 0.34 0.39 0.30 0.30 nan 0.28 0.32 0.43 0.41 0.44
8.72 10.13 5.19 7.80 3.80 2.67 1.79 1.20 1.79 1.02 1.58 1.21 1.41 1.74 1.81 1.27 2.20 2.38 1.25 0.80 0.62 0.61 0.42 0.25 0.23 0.28 0.54 0.51 0.10 0.11 0.05 0.22 0.32 0.25 0.10 0.12 0.13 0.13 0.33 0.15 0.05 0.06 0.11 0.64 0.41 0.40 0.42 0.52 0.46 0.54 0.56 0.69 0.78 1.06
9.95 4.13 5.46 2.10 2.32 1.02 0.85 1.22 1.02 1.29 1.00 1.52 1.59 1.05 1.36 1.38 2.07 2.43 0.85 0.94 0.54 0.75 0.99 0.68 0.53 0.35 0.29 0.38 0.33 0.30 0.24 0.27 0.38 0.30 0.14 0.16 0.26 0.99 1.14 0.61 0.53 0.21 0.11 0.26 0.93 1.11 0.69 0.67 0.83 0.85 0.89 0.73 nan 1.05
6.29 3.37 1.26 0.23 0.24 0.18 0.45 0.52 0.51 0.85 1.46 1.46 1.14 0.99 1.36 2.54 1.70 0.50 0.42 0.46 0.73 0.57 0.71 0.70 0.65 0.58 0.51 0.41 0.31 0.42 0.53 0.65 0.89 0.71 0.35 0.30 0.30 0.37 1.00 1.61 1.26 0.30 0.45 0.87 0.89 1.09 1.54 1.11 1.07 0.99 1.12 0.92 0.95 1.14
1.00 0.55 0.90 1.18 0.59 0.50 0.51 0.59 0.85 1.10 0.86 0.39 0.46 1.21 1.26 0.94 0.77 0.49 0.60 0.61 0.94 1.04 1.13 0.78 0.85 0.82 0.91 0.74 0.68 0.79 0.73 0.77 0.76 0.73 0.64 0.46 0.44 0.60 0.69 0.73 0.92 nan 1.60 1.32 2.03 1.95 1.53 1.46 1.57 1.41 1.23 1.22 1.10 0.90
1.02 0.68 0.47 1.24 0.84 1.08 1.29 1.11 0.90 0.49 0.17 0.35 0.83 0.68 0.60 0.30 0.62 0.56 0.56 0.68 1.02 1.07 0.97 0.84 0.88 1.00 0.86 0.83 0.88 0.94 1.09 1.15 1.18 0.91 0.61 0.55 0.56 0.72 0.88 1.02 1.33 1.24 1.24 1.22 nan nan 1.61 2.65 2.69 2.35 1.58 1.34 1.14 1.38
1.02 1.06 0.83 0.95 1.00 0.90 0.94 0.55 0.98 0.84 0.34 0.41 0.42 0.50 0.46 0.70 0.85 0.67 0.77 0.90 0.97 1.12 1.33 1.53 1.45 1.75 1.50 1.22 1.29 0.92 0.87 1.00 1.34 1.86 2.01 1.36 1.18 0.97 1.34 1.56 1.41 1.22 1.19 1.21 1.20 1.07 nan 1.24 nan 1.25 1.37 1.26 1.29 1.39
0.77 1.23 1.09 0.99 1.11 1.37 1.02 0.67 1.00 0.46 0.79 1.12 1.04 0.99 0.90 1.11 0.82 0.70 0.65 0.73 0.89 1.35 1.47 1.83 1.71 1.78 1.37 1.21 1.48 1.46 0.99 0.85 1.05 1.21 1.52 1.77 1.56 1.52 1.67 1.80 1.58 1.49 1.40 1.33 1.25 1.19 1.36 1.36 1.32 1.45 1.22 1.39 1.28 1.36
0.95 1.25 1.32 1.06 1.63 1.74 1.31 1.59 1.65 1.53 1.57 1.62 1.56 1.60 1.38 1.35 1.15 0.89 0.58 1.19 1.13 0.95 nan 1.22 1.08 0.86 1.00 1.13 1.05 1.09 nan 1.21 1.25 1.31 1.57 1.71 1.81 1.78 2.23 1.73 1.74 1.67 1.52 1.45 1.46 1.50 1.56 1.71 1.70 1.64 1.44 1.57 1.55 1.36
2.12 1.78 1.97 1.41 2.28 1.90 1.65 1.84 0.99 2.40 1.66 1.57 1.24 1.09 1.38 0.84 0.68 0.64 0.51 0.97 0.94 0.99 1.03 1.10 1.03 1.10 0.93 0.96 0.93 0.88 nan 1.19 1.50 nan nan nan nan nan 1.91 1.39 1.41 1.41 1.36 1.36 1.45 1.51 1.60 1.69 1.73 1.47 1.47 1.64 1.63 1.54
SL_Ratio
nan nan nan nan nan nan nan nan nan nan nan nan nan nan nan nan nan nan 6.3 nan 4.4 6.4 6.4 5.7 6.0 8.1 7.2 7.7 10.0 8.4 10.3 8.8 8.6 9.9 9.9 11.0 12.1 12.9 14.5 16.7 17.9 15.3 12.1 12.0 12.0 12.4 10.9 12.2 16.9 17.5 15.8 14.9 14.3 13.8
nan nan nan nan nan nan nan nan nan nan nan nan nan nan nan nan nan nan 3.7 nan nan 5.7 7.8 6.5 6.8 6.4 6.5 7.6 7.7 7.0 7.3 6.4 8.6 9.2 9.7 9.4 10.9 11.5 12.9 13.6 12.7 14.6 13.4 13.0 12.0 12.5 11.8 12.6 12.5 12.9 11.9 13.6 14.5 13.7
nan nan nan nan nan nan nan nan nan nan nan nan nan nan nan nan nan nan 4.3 3.8 3.8 6.4 8.6 8.0 8.1 6.6 6.1 7.4 6.8 8.4 8.8 8.6 7.9 6.3 9.2 9.3 11.4 9.8 13.3 14.0 12.9 13.7 11.7 11.2 12.4 12.1 13.8 13.4 11.2 10.2 10.5 10.6 11.2 12.0
nan nan nan nan nan nan nan nan nan nan nan nan nan nan nan nan nan nan 5.3 5.0 5.1 6.5 9.8 11.9 6.3 9.1 6.7 6.5 6.8 7.3 7.1 8.5 7.2 6.6 7.5 7.6 8.4 8.3 9.7 11.6 13.7 13.6 12.2 12.3 10.6 8.5 9.2 8.2 8.3 8.9 7.9 8.6 9.3 8.0
nan nan nan nan nan nan nan nan nan nan nan nan nan nan nan nan nan nan 3.3 3.2 3.8 7.7 9.5 11.0 8.8 7.9 7.3 8.1 8.5 8.5 9.1 8.6 8.5 7.9 7.6 8.7 9.9 8.7 8.8 8.7 10.4 10.7 11.5 11.0 10.5 10.3 11.0 9.0 8.3 8.8 8.5 9.4 9.0 10.1
nan nan nan nan nan nan nan nan nan nan nan nan nan nan nan nan nan 4.1 7.9 5.1 6.0 6.0 7.6 9.0 9.1 9.8 8.4 6.5 7.9 9.4 9.2 8.9 7.2 6.8 8.3 7.7 9.8 9.9 7.9 10.1 10.5 11.0 10.9 9.8 10.2 8.7 9.2 8.6 8.8 8.2 9.0 8.9 9.7 8.9
nan nan nan nan nan nan nan nan nan nan nan nan nan nan nan nan 0.0 6.4 8.4 5.9 nan 5.4 8.1 7.2 10.8 6.7 8.9 9.0 6.8 6.2 6.0 6.8 7.2 7.2 8.0 8.3 9.4 8.6 7.9 10.0 10.0 10.3 10.5 9.7 8.5 8.6 9.7 9.0 9.5 8.6 8.6 8.1 8.3 8.3
nan nan nan nan nan nan nan nan nan nan nan nan nan nan nan nan nan 6.7 6.0 nan nan 8.8 4.9 4.4 8.2 11.6 12.0 7.3 9.5 4.4 6.2 5.7 6.9 7.3 7.2 8.3 7.4 7.6 8.7 10.5 10.4 9.7 9.9 10.1 9.3 9.8 9.7 8.9 8.6 8.6 9.0 9.0 9.7 10.1
nan nan nan nan nan nan nan nan nan nan nan nan nan nan nan nan 6.2 6.4 nan nan 4.6 6.4 6.0 4.8 7.2 5.2 10.0 8.1 9.1 8.4 6.7 7.2 7.7 8.8 9.6 7.4 9.9 9.3 11.4 11.4 10.9 11.1 11.9 10.4 8.2 8.9 9.1 10.1 10.6 10.7 10.8 10.5 11.2 11.1
nan nan nan nan nan nan nan nan nan nan nan nan nan 2.5 2.7 5.0 nan nan 4.2 4.9 4.2 6.3 4.8 7.1 7.8 8.3 13.5 12.2 9.1 9.1 7.0 7.3 4.9 10.5 7.6 7.7 11.6 9.6 9.6 10.5 11.0 10.4 9.7 9.9 9.6 11.3 11.0 11.7 12.7 12.4 12.5 12.3 12.4 12.2
nan nan nan nan nan nan nan nan nan nan nan nan 2.5 2.5 nan nan nan 2.7 3.4 4.5 5.4 5.7 6.3 6.7 6.8 9.9 5.7 8.0 8.3 8.2 6.8 6.9 6.0 10.9 7.3 8.0 11.0 10.8 10.2 10.3 10.2 10.4 11.0 12.3 12.7 13.5 13.5 13.8 14.7 14.5 13.7 13.0 12.9 12.4
nan nan nan nan nan nan nan nan nan nan nan nan 4.3 nan nan 2.5 3.1 4.2 4.4 4.0 5.8 6.7 6.8 6.4 6.1 7.4 8.2 10.1 8.5 6.3 7.5 5.7 8.3 9.7 6.2 8.5 11.4 11.3 11.1 10.6 9.9 13.8 13.6 13.9 13.8 14.8 14.5 14.7 15.8 15.9 15.8 15.7 14.9 14.8
nan nan nan nan nan nan nan nan nan nan nan nan 2.5 3.0 3.8 4.0 5.7 5.9 6.9 5.4 5.5 4.9 4.5 5.7 5.4 6.5 6.0 7.1 6.4 6.1 6.2 7.8 8.4 6.2 11.2 12.6 11.8 11.1 12.8 13.5 15.2 13.9 15.5 15.0 15.8 14.7 15.3 15.5 15.4 15.9 16.2 15.5 16.1 16.2
nan nan nan nan nan nan nan nan nan nan nan 4.0 3.6 5.2 5.4 5.6 6.5 7.4 8.5 7.3 6.4 4.9 5.7 7.0 5.5 7.2 6.6 6.1 7.1 5.9 9.0 6.9 7.3 7.9 10.8 11.8 13.0 14.6 15.5 14.4 14.4 12.8 13.4 11.4 15.5 15.7 14.9 16.5 16.7 16.0 15.4 15.4 16.5 16.5
nan nan nan nan nan nan nan nan nan nan 3.5 3.9 4.2 5.8 6.0 8.2 5.0 5.4 3.3 3.6 4.7 6.6 7.1 5.7 6.1 6.0 4.9 5.7 6.9 5.6 7.0 7.3 10.0 11.0 10.2 11.7 15.3 15.7 12.6 11.5 11.3 11.5 8.2 5.4 4.8 5.0 4.7 5.8 6.6 5.7 5.4 12.0 12.2 11.7
nan nan 2.8 nan nan nan nan nan nan nan 3.7 3.7 4.3 5.3 7.7 4.7 4.0 3.7 3.1 3.4 3.5 6.0 5.8 4.7 5.3 6.2 6.2 6.3 6.6 7.6 7.0 9.2 9.9 9.5 9.0 8.1 8.7 7.6 8.8 12.0 13.2 14.8 14.2 14.7 13.4 11.5 11.7 12.1 7.7 7.4 5.0 4.3 4.4 4.4
nan 6.2 nan nan nan nan nan 2.3 2.5 2.9 3.6 4.0 5.0 7.1 6.0 4.8 5.5 5.4 3.9 3.8 5.9 5.1 5.0 5.4 7.0 7.5 5.7 6.9 7.5 6.4 7.4 10.1 10.2 9.5 7.6 12.4 10.2 9.4 5.9 6.4 6.7 9.4 10.4 11.4 12.1 11.8 12.6 12.1 6.8 7.5 8.4 5.4 4.9 4.3
4.1 5.0 nan nan nan nan 3.3 2.5 3.5 3.9 4.9 4.7 6.0 5.8 7.0 5.6 4.7 3.8 3.6 3.1 4.5 4.4 4.9 5.0 6.0 6.9 7.7 7.8 7.8 9.0 8.8 9.1 10.2 9.3 8.9 12.0 9.3 6.6 6.4 11.3 8.9 9.7 11.0 8.7 7.4 8.1 8.3 7.8 8.1 6.8 8.3 6.8 6.9 6.8
nan nan nan nan nan 3.1 2.8 3.3 2.8 5.5 5.5 5.3 5.7 5.0 4.8 5.2 5.0 6.0 3.9 3.7 3.7 4.4 4.6 5.5 6.2 7.2 10.5 9.9 11.1 10.2 12.8 12.3 17.6 16.7 10.4 13.4 7.1 6.9 6.5 6.4 6.8 7.1 7.4 7.3 7.2 7.8 8.1 7.7 11.3 8.9 8.5 8.1 8.8 7.7
nan nan nan nan nan 3.6 4.7 4.7 3.4 5.2 6.5 6.5 4.9 5.6 5.4 5.3 3.9 3.0 2.9 3.0 3.7 4.2 5.5 6.3 10.0 16.7 17.1 15.7 14.0 15.4 15.2 17.8 19.4 19.7 14.0 4.6 6.8 6.5 6.7 6.4 6.1 7.4 5.9 6.7 5.7 nan 8.6 8.2 4.8 5.7 8.6 9.8 12.7 8.3
nan nan nan 3.6 2.7 2.9 3.5 5.5 6.2 5.8 6.2 6.8 5.8 5.9 7.0 4.4 5.3 5.1 4.8 3.3 5.0 5.7 7.6 14.3 16.0 14.7 14.0 14.1 15.2 16.4 17.7 18.4 19.5 19.4 16.1 13.7 17.9 4.9 4.7 4.3 4.6 5.0 6.7 6.6 6.9 6.4 5.1 6.5 6.1 6.6 5.4 7.0 6.6 8.2
2.5 nan 3.1 2.8 3.6 4.2 5.2 4.6 6.1 6.6 7.5 7.3 6.3 5.9 6.1 6.0 5.9 5.9 4.3 5.8 7.0 9.2 14.6 16.1 14.7 13.4 12.3 17.2 17.6 17.1 17.6 18.1 18.0 18.9 nan 18.9 8.6 7.1 7.6 6.4 7.7 6.1 5.9 5.7 6.7 8.1 7.2 6.2 9.1 10.5 9.7 7.4 8.9 5.7
nan 2.8 3.5 3.1 5.3 5.5 5.8 4.9 7.0 7.0 7.7 7.1 6.7 7.4 7.0 6.8 6.8 5.3 6.7 7.3 9.4 13.4 13.2 13.1 14.5 15.6 14.0 14.6 16.6 18.3 18.0 18.8 19.1 19.6 19.4 18.8 17.8 9.3 7.6 7.8 7.6 6.9 6.2 5.8 6.3 7.9 7.3 nan 5.6 9.6 9.3 5.9 6.3 6.5
nan 4.6 5.4 5.8 5.9 6.4 6.9 7.0 7.5 8.0 8.2 8.3 7.4 8.1 7.9 7.7 7.2 7.1 8.2 10.9 13.3 9.3 10.3 12.7 7.9 6.5 6.0 6.9 11.0 11.7 11.9 12.9 12.6 12.4 14.2 11.6 8.6 10.0 9.5 7.7 10.8 7.7 10.2 8.0 7.7 7.0 6.9 7.4 nan 6.6 6.7 7.2 6.8 7.6
4.9 5.4 5.8 6.0 6.7 7.7 8.5 9.4 8.1 9.1 8.8 9.2 9.1 8.7 8.4 9.2 7.9 7.8 9.8 10.9 8.8 9.2 8.7 8.5 8.7 10.6 10.0 6.8 8.4 9.9 13.8 13.3 13.2 11.4 6.1 9.9 11.7 7.8 6.4 6.9 8.4 10.7 7.6 7.9 8.1 8.9 7.4 7.6 7.3 7.8 8.3 9.1 8.5 9.6
5.7 6.6 6.3 7.7 7.7 8.8 9.6 9.3 10.0 9.4 9.5 9.3 9.3 10.3 9.2 8.9 8.5 8.4 12.0 10.3 10.3 9.9 9.0 10.5 12.4 9.9 8.2 10.6 13.7 12.0 10.8 10.1 11.3 10.3 6.8 8.8 13.0 9.3 7.7 8.6 8.3 7.4 7.4 11.6 10.7 9.3 8.1 8.1 8.9 8.9 8.7 8.5 nan 8.1
6.5 7.2 8.0 8.2 10.0 11.0 10.7 10.3 10.3 9.4 9.3 9.5 9.7 9.9 9.0 8.5 9.7 13.7 12.1 12.0 11.9 10.6 10.1 10.0 10.8 11.1 11.9 10.2 8.7 8.7 9.3 9.3 10.5 10.8 10.9 10.3 11.7 12.7 10.1 9.7 10.6 9.3 10.5 9.3 8.7 9.0 9.5 9.0 9.3 9.1 9.2 8.1 8.6 9.1
8.5 9.3 9.3 8.4 10.0 10.1 10.5 11.0 10.2 10.1 10.3 11.2 10.3 9.7 9.2 10.7 11.7 12.1 11.8 10.1 9.4 9.0 8.9 9.9 9.5 9.3 10.0 8.5 8.2 8.2 7.3 7.5 8.0 8.1 7.9 8.9 8.6 8.0 8.5 8.9 8.9 nan 9.2 9.5 10.1 9.2 8.4 9.0 8.9 8.9 8.9 8.9 8.6 8.2
9.1 9.0 9.4 9.1 10.1 9.8 9.5 9.6 10.2 11.2 13.0 11.6 10.1 10.9 11.8 12.8 10.2 10.3 9.9 9.0 8.4 8.8 9.9 9.7 8.2 7.6 8.5 8.8 9.5 9.2 8.7 9.3 9.7 9.7 10.2 10.8 9.9 8.8 8.6 9.5 9.6 9.1 9.1 9.2 nan nan 9.5 9.6 9.6 9.7 8.9 9.1 8.9 8.2
9.4 8.6 10.0 10.3 9.7 10.3 9.8 11.5 9.5 9.8 10.6 10.8 11.1 11.4 12.2 10.7 9.4 7.4 8.9 9.4 10.1 10.1 8.9 8.6 8.9 8.2 9.0 9.3 8.8 9.4 8.5 9.1 10.3 11.2 11.2 10.6 10.2 9.2 9.1 9.7 9.6 9.1 9.1 9.2 9.1 8.4 nan 7.2 nan 7.7 8.9 9.2 8.9 9.1
9.3 8.5 10.2 10.6 10.3 9.3 10.3 11.3 10.0 11.9 10.6 9.9 10.2 9.8 10.6 10.1 10.4 9.1 10.4 10.4 10.3 8.8 8.6 8.3 8.0 8.2 9.9 9.6 9.2 9.7 9.3 8.9 9.5 10.4 11.1 10.5 9.6 9.6 9.2 9.3 9.3 9.3 9.2 9.5 9.7 9.6 9.2 9.2 9.4 9.4 9.8 9.6 9.6 9.7
9.5 9.8 9.3 10.4 9.0 8.5 10.0 9.2 9.3 9.2 9.3 9.0 9.3 9.2 9.7 9.8 11.1 10.4 8.3 9.3 9.1 9.9 nan 9.5 10.7 10.2 9.3 9.6 10.3 10.3 nan 10.3 10.2 10.0 10.1 9.9 10.0 9.6 9.6 9.3 9.2 9.2 9.3 9.4 9.3 9.4 9.4 9.3 9.4 9.5 10.0 9.8 9.8 10.2
8.6 8.9 8.7 9.9 8.2 8.8 8.9 8.3 10.3 7.9 9.1 9.4 10.2 10.6 10.0 11.2 12.6 11.3 11.2 10.2 9.5 10.9 10.9 10.1 9.7 10.1 11.0 11.0 10.8 10.8 nan 10.6 10.9 nan nan nan nan nan 9.0 9.0 9.2 9.3 9.5 9.5 9.3 9.4 9.5 9.5 9.4 10.3 10.4 10.0 10.0 10.3